Home   Weather   Istanbul   Past weeks
Flag for Turkey

Past Weather in Istanbul, Turkey — March 2012

Now
63 °F

Partly cloudy.


Feels Like: 63 °F
Forecast: 69 / 58 °F
Wind: 7 mph from Northeast

Location: Istanbul Ataturk Airport

Current Time: Sep 20, 2019 at 9:41:08 pm

Latest Report: Sep 20, 2019 at 8:50 pm


Visibility: N/A

Pressure: 30.15 "Hg

Humidity: 83%

Dew Point: 57 °F

Location of IstanbulLocation

March 2012 Weather in Istanbul — Graph

°F

High & Low Weather Summary for March 2012

 TemperatureHumidityPressure
High70 °F (Mar 25, 1:50 pm)100% (Mar 1, 5:20 am)30.57 "Hg (Mar 1, 5:20 am)
Low32 °F (Mar 1, 1:50 am)25% (Mar 16, 3:20 pm)29.62 "Hg (Mar 12, 4:20 am)
Average46 °F66%30.17 "Hg
* Reported Mar 1 12:20 am — Mar 31 11:50 pm, Istanbul. Weather by CustomWeather, © 2019

Note: Actual official high and low records may vary slightly from our data, if they occured in-between our weather recording intervals... More about our weather records

Advertising

Istanbul Weather History for March 1, 2012

Scroll right to see more
 ConditionsComfort  
Time TempWeatherWind HumidityBarometerVisibility
12:20 am
Thu, Mar 1
34 °FPartly cloudy.7 mph65%29.86 "HgN/A
12:50 am34 °FPartly cloudy.12 mph65%29.86 "HgN/A
1:20 am34 °FPartly cloudy.12 mph75%29.86 "HgN/A
1:50 am32 °FPartly cloudy.12 mph80%29.86 "HgN/A
2:20 am34 °FPartly cloudy.14 mph75%29.86 "HgN/A
2:50 am32 °FPartly cloudy.10 mph80%29.89 "HgN/A
3:20 am32 °FPartly cloudy.6 mph80%29.89 "HgN/A
3:50 am34 °FPartly cloudy.7 mph81%29.89 "HgN/A
4:20 am32 °FPartly cloudy.7 mph80%29.89 "HgN/A
4:50 am34 °FSnow showers. Fog.14 mph65%29.89 "Hg1 mi
5:20 am32 °FPartly cloudy.8 mph100%29.92 "HgN/A
5:50 am34 °FPartly cloudy.18 mph81%29.92 "HgN/A
6:20 am32 °FSnow flurries. Partly cloudy.23 mph87%29.92 "Hg4 mi
6:50 am32 °FSnow flurries. Broken clouds.20 mph93%29.92 "Hg4 mi
7:20 am32 °FSnow flurries. Partly sunny.22 mph87%29.95 "Hg4 mi
7:50 am32 °FSnow showers. Partly sunny.23 mph93%29.95 "Hg1 mi
8:20 am34 °FSnow flurries. Partly sunny.21 mph87%29.95 "Hg4 mi
8:50 am36 °FBroken clouds.24 mph75%29.95 "HgN/A
9:20 am37 °FBroken clouds.25 mph65%29.98 "HgN/A
9:50 am36 °FBroken clouds.28 mph75%29.98 "HgN/A
10:20 am36 °FBroken clouds.30 mph70%30.01 "HgN/A
10:50 am37 °FBroken clouds.26 mph70%30.01 "HgN/A
11:20 am37 °FBroken clouds.25 mph65%30.04 "HgN/A
11:50 am39 °FBroken clouds.29 mph61%30.04 "HgN/A
12:20 pm39 °FBroken clouds.25 mph56%30.04 "HgN/A
12:50 pm39 °FBroken clouds.21 mph61%30.07 "HgN/A
1:20 pm37 °FBroken clouds.24 mph65%30.07 "HgN/A
1:50 pm37 °FBroken clouds.25 mph65%30.07 "HgN/A
2:20 pm36 °FSnow flurries. Broken clouds.23 mph75%30.07 "Hg4 mi
2:50 pm36 °FSnow flurries. Fog.25 mph87%30.07 "Hg1 mi
3:20 pm34 °FSnow flurries. Fog.17 mph100%30.09 "Hg1 mi
3:50 pm36 °FSnow flurries. Partly sunny.17 mph93%30.09 "Hg1 mi
4:20 pm34 °FSnow flurries. Fog.14 mph93%30.12 "Hg1 mi
4:50 pm34 °FSnow flurries. Fog.14 mph100%30.12 "Hg1 mi
5:20 pm34 °FSnow flurries. Fog.12 mph100%30.12 "Hg2 mi
5:50 pm36 °FSnow flurries. Fog.15 mph87%30.12 "Hg2 mi
6:20 pm36 °FSnow flurries. Passing clouds.14 mph75%30.15 "Hg4 mi
6:50 pm37 °FSnow flurries. Passing clouds.15 mph65%30.15 "HgN/A
7:20 pm37 °FPartly cloudy.15 mph60%30.15 "HgN/A
7:50 pm37 °FSnow flurries. Partly cloudy.12 mph65%30.15 "HgN/A
8:20 pm36 °FSnow flurries. Passing clouds.12 mph70%30.15 "HgN/A
8:50 pm37 °FPassing clouds.9 mph65%30.15 "HgN/A
9:20 pm37 °FPartly cloudy.14 mph60%30.18 "HgN/A
9:50 pm37 °FPartly cloudy.16 mph60%30.18 "HgN/A
10:20 pm37 °FPartly cloudy.20 mph52%30.18 "HgN/A
10:50 pm36 °FPartly cloudy.18 mph60%30.18 "HgN/A
11:20 pm36 °FPartly cloudy.17 mph65%30.18 "HgN/A
11:50 pm36 °FPartly cloudy.17 mph65%30.18 "HgN/A
Weather by CustomWeather, © 2019

See weather overview